DM1HF-13 Weather Reports


time (UTC)temp
C
wind
direction
speed
KPH
gust
KPH
rain 1hr
cm
rain 24hr
cm
rain mn
cm
humidity
%
barometer
mb
20260506024517 12 255 1.6 0.0 0.05 0.03 0.00 94 1005.3
20260506024017 12 282 0.0 0.0 0.00 0.03 0.00 95 1005.3
20260506023517 12 25 0.0 0.0 0.00 0.03 0.00 94 1005.4
20260506023017 12 250 0.0 0.0 0.00 0.03 0.00 94 1005.4
20260506022517 12 227 3.2 0.0 0.00 0.03 0.00 94 1005.4
20260506022017 12 317 1.6 0.0 0.00 0.03 0.00 94 1005.5
20260506021517 12 186 1.6 0.0 0.00 0.03 0.00 94 1005.5
20260506021017 12 286 1.6 0.0 0.00 0.03 0.00 94 1005.6
20260506020517 12 137 3.2 0.0 0.00 0.03 0.00 94 1005.6
20260506020017 13 257 1.6 0.0 0.00 0.03 0.00 95 1005.6
20260506015517 13 239 0.0 0.0 0.00 0.03 0.00 94 1005.6
20260506015017 13 102 1.6 0.0 0.00 0.03 0.00 94 1005.7
20260506014517 13 137 4.8 0.0 0.00 0.03 0.00 94 1005.8
20260506014017 13 164 3.2 0.0 0.00 0.03 0.00 94 1005.8
20260506013517 13 136 4.8 0.0 0.00 0.03 0.00 94 1005.9
20260506013017 13 174 3.2 0.0 0.00 0.03 0.00 94 1005.9
20260506012517 13 138 3.2 0.0 0.00 0.03 0.00 94 1006.0
20260506012017 13 129 3.2 0.0 0.03 0.03 0.00 94 1006.0
20260506011517 13 165 1.6 0.0 0.15 0.03 0.00 94 1006.0
20260506011017 13 141 1.6 0.0 0.00 0.03 0.00 94 1006.0
20260506010517 13 186 0.0 0.0 0.00 0.03 0.00 94 1006.0
20260506010017 13 262 1.6 0.0 0.00 0.03 0.00 94 1006.0
20260506005517 13 136 1.6 0.0 0.00 0.03 0.00 94 1006.1
20260506005017 13 84 0.0 0.0 0.00 0.03 0.00 94 1006.1
20260506004517 13 239 1.6 0.0 0.00 0.03 0.00 94 1006.1
20260506004017 13 190 3.2 0.0 0.00 0.03 0.00 95 1006.2
20260506003517 13 205 1.6 0.0 0.03 0.03 0.00 94 1006.3
20260506003017 13 139 3.2 0.0 0.00 0.03 0.00 95 1006.3
20260506002517 13 180 1.6 0.0 0.05 0.03 0.00 95 1006.4
20260506002017 13 110 0.0 0.0 0.00 0.00 0.00 95 1006.5
20260506001517 13 230 0.0 0.0 0.00 0.00 0.00 94 1006.5
20260506001017 13 85 1.6 0.0 0.03 0.00 0.00 94 1006.6
20260506000517 13 167 1.6 0.0 0.00 0.00 0.00 94 1006.7
20260506000017 13 226 1.6 0.0 0.00 1.47 0.00 94 1006.7
20260505235516 13 112 0.0 0.0 0.00 1.47 0.00 94 1006.8
20260505235017 13 128 1.6 0.0 0.00 1.47 0.00 94 1006.8
20260505234517 13 124 4.8 0.0 0.00 1.47 0.00 94 1006.8
20260505234017 13 111 3.2 0.0 0.00 1.47 0.00 94 1006.8
20260505233517 13 123 3.2 0.0 0.00 1.47 0.00 94 1006.8
20260505233017 13 206 3.2 0.0 0.00 1.47 0.00 94 1006.7
20260505232517 13 0 0.0 0.0 0.25 1.45 0.00 94 1006.8
20260505232017 13 115 1.6 0.0 0.28 1.45 0.00 94 1006.8
20260505231517 13 151 1.6 0.0 0.00 1.45 0.00 94 1006.7
20260505231017 13 269 1.6 0.0 0.03 1.45 0.00 94 1006.6
20260505230516 13 238 1.6 0.0 0.20 1.45 0.00 93 1006.7
20260505230017 13 212 1.6 0.0 0.36 1.42 0.00 93 1006.7
20260505225517 13 258 1.6 0.0 0.48 1.40 0.00 93 1006.7
20260505225017 13 203 0.0 0.0 0.23 1.37 0.00 93 1006.8
20260505224517 13 203 1.6 0.0 0.48 1.35 0.00 93 1006.8
20260505224016 13 260 3.2 0.0 0.91 1.30 0.00 93 1007.0
20260505223517 13 328 0.0 0.0 1.04 1.19 0.00 92 1007.0
20260505223017 13 279 3.2 0.0 0.69 1.09 0.00 92 1007.1
20260505222517 13 157 4.8 0.0 3.45 0.97 0.00 91 1007.2
20260505222017 13 153 1.6 0.0 1.32 0.86 0.00 92 1007.4
20260505221517 13 173 3.2 0.0 0.71 0.79 0.00 91 1007.5
20260505221017 13 184 4.8 0.0 0.76 0.71 0.00 92 1007.6
20260505220517 13 114 3.2 0.0 1.22 0.64 0.00 92 1007.7
20260505220016 13 154 1.6 0.0 0.48 0.56 0.00 92 1007.7
20260505215516 14 171 3.2 0.0 0.66 0.51 0.00 91 1007.8
20260505215017 14 158 4.8 0.0 0.51 0.46 0.00 91 1007.9
20260505214516 14 124 6.4 0.0 0.13 0.43 0.00 90 1007.9
20260505214016 14 171 8.0 0.0 0.48 0.41 0.00 89 1008.0
20260505213516 15 174 4.8 0.0 0.25 0.38 0.00 88 1008.1
20260505213016 14 196 1.6 0.0 0.18 0.36 0.00 88 1008.1
20260505212516 15 126 1.6 0.0 0.79 0.33 0.00 87 1008.1
20260505212017 15 294 1.6 0.0 0.89 0.25 0.00 86 1008.3
20260505211517 15 22 0.0 0.0 0.71 0.20 0.00 87 1008.4
20260505211016 15 319 0.0 0.0 0.33 0.13 0.00 86 1008.4
20260505210516 15 122 1.6 0.0 0.28 0.10 0.00 85 1008.4
20260505210016 15 283 0.0 0.0 0.25 0.08 0.00 85 1008.3
20260505205516 15 228 0.0 0.0 0.51 0.05 0.00 84 1008.4
20260505205017 15 289 0.0 0.0 0.36 0.03 0.00 82 1008.3
20260505204516 15 241 0.0 0.0 0.00 0.03 0.00 81 1008.3
20260505204016 15 279 1.6 0.0 0.08 0.03 0.00 78 1008.2
20260505203516 16 295 3.2 0.0 0.10 0.03 0.00 77 1008.3
20260505203016 16 279 1.6 0.0 0.10 0.03 0.00 76 1008.3
20260505202516 16 302 1.6 0.0 0.23 0.03 0.00 76 1008.3
20260505202016 16 299 1.6 0.0 0.00 0.00 0.00 75 1008.2
20260505201517 16 285 0.0 0.0 0.00 0.00 0.00 75 1008.0
20260505201016 16 314 1.6 0.0 0.00 0.00 0.00 75 1007.8
20260505200516 16 253 1.6 0.0 0.00 0.00 0.00 74 1007.7
20260505200016 16 238 1.6 0.0 0.00 0.00 0.00 74 1007.6
20260505195516 16 292 3.2 0.0 0.00 0.00 0.00 74 1007.6
20260505195017 16 147 1.6 0.0 0.00 0.00 0.00 74 1007.6
20260505194516 16 356 3.2 0.0 0.00 0.00 0.00 74 1007.3
20260505194016 16 310 4.8 0.0 0.00 0.00 0.00 74 1007.2
20260505193517 16 308 3.2 0.0 0.00 0.00 0.00 74 1007.3
20260505193016 16 318 3.2 0.0 0.00 0.00 0.00 75 1007.4
20260505192516 16 21 1.6 0.0 0.00 0.00 0.00 75 1007.5
20260505192016 16 290 3.2 0.0 0.00 0.00 0.00 75 1007.6
20260505191516 16 247 1.6 0.0 0.00 0.00 0.00 75 1007.6
20260505191016 16 260 4.8 0.0 0.00 0.00 0.00 74 1007.6
20260505190516 16 266 1.6 0.0 0.00 0.00 0.00 74 1007.6
20260505190016 16 228 1.6 0.0 0.00 0.00 0.00 74 1007.6
20260505185516 16 259 1.6 0.0 0.00 0.00 0.00 74 1007.6
20260505185017 17 332 1.6 0.0 0.00 0.00 0.00 74 1007.7
20260505184516 17 356 1.6 0.0 0.00 0.00 0.00 74 1007.7
20260505184016 17 339 3.2 0.0 0.00 0.00 0.00 74 1007.9
20260505183516 17 295 1.6 0.0 0.00 0.00 0.00 74 1007.9
20260505183016 17 321 3.2 0.0 0.00 0.00 0.00 73 1007.9
20260505182516 17 325 4.8 0.0 0.00 0.00 0.00 73 1007.8
20260505182016 17 304 3.2 0.0 0.00 0.00 0.00 73 1007.9
20260505181517 17 350 3.2 0.0 0.00 0.00 0.00 73 1007.9
20260505181016 17 234 0.0 0.0 0.00 0.00 0.00 73 1007.9
20260505180516 17 317 1.6 0.0 0.00 0.00 0.00 73 1007.9
20260505180016 17 1 1.6 0.0 0.00 0.00 0.00 72 1008.0
20260505175516 17 286 3.2 0.0 0.00 0.00 0.00 72 1008.0
20260505175016 17 336 1.6 0.0 0.00 0.00 0.00 71 1008.0
20260505174516 17 336 3.2 0.0 0.00 0.00 0.00 71 1008.1
20260505174016 17 326 0.0 0.0 0.00 0.00 0.00 70 1008.1
20260505173517 17 207 0.0 0.0 0.00 0.00 0.00 70 1008.1
20260505173016 18 318 1.6 0.0 0.00 0.00 0.00 69 1008.1
20260505172516 18 8 0.0 0.0 0.00 0.00 0.00 68 1008.1
20260505172016 18 264 0.0 0.0 0.00 0.00 0.00 68 1008.1
20260505171517 18 260 1.6 0.0 0.00 0.00 0.00 67 1008.1
20260505171016 18 174 1.6 0.0 0.00 0.00 0.00 67 1008.1
20260505170516 18 312 1.6 0.0 0.00 0.00 0.00 66 1008.1
20260505170016 18 317 1.6 0.0 0.00 0.00 0.00 66 1008.2
20260505165516 18 339 4.8 0.0 0.00 0.00 0.00 65 1008.3
20260505165017 18 294 6.4 0.0 0.00 0.00 0.00 64 1008.3
20260505164516 18 258 3.2 0.0 0.00 0.00 0.00 64 1008.3
20260505164017 18 204 1.6 0.0 0.00 0.00 0.00 65 1008.3
20260505163516 18 284 1.6 0.0 0.00 0.00 0.00 65 1008.3
20260505163016 18 299 4.8 0.0 0.00 0.00 0.00 65 1008.3
20260505162516 19 280 3.2 0.0 0.00 0.00 0.00 64 1008.4
20260505162016 19 228 3.2 0.0 0.00 0.00 0.00 63 1008.4
20260505161517 19 264 1.6 0.0 0.00 0.00 0.00 65 1008.4
20260505161016 19 278 1.6 0.0 0.00 0.00 0.00 65 1008.4
20260505160516 19 250 3.2 0.0 0.00 0.00 0.00 66 1008.4
20260505153016 19 15 1.6 0.0 0.00 0.00 0.00 65 1008.8
20260505152516 19 185 1.6 0.0 0.00 0.00 0.00 65 1008.9
20260505152016 19 228 1.6 0.0 0.00 0.00 0.00 65 1009.0
20260505151516 19 301 1.6 0.0 0.00 0.00 0.00 66 1008.9
20260505151016 19 296 3.2 0.0 0.00 0.00 0.00 65 1009.0
20260505150516 19 287 3.2 0.0 0.00 0.00 0.00 65 1009.1
20260505140516 20 344 4.8 0.0 0.00 0.00 0.00 65 1009.6
20260505125017 20 321 4.8 0.0 0.00 0.00 0.00 64 1010.2
20260505124516 20 352 6.4 0.0 0.00 0.00 0.00 63 1010.2
20260505124016 20 337 6.4 0.0 0.00 0.00 0.00 61 1010.2
20260505123516 20 17 1.6 0.0 0.00 0.00 0.00 63 1010.3
20260505123016 20 301 3.2 0.0 0.00 0.00 0.00 63 1010.3
20260505122516 20 191 1.6 0.0 0.00 0.00 0.00 61 1010.4
20260505122016 19 164 1.6 0.0 0.00 0.00 0.00 66 1010.4
20260505121516 19 253 1.6 0.0 0.00 0.00 0.00 68 1010.4
20260505121016 18 318 8.0 0.0 0.00 0.00 0.00 70 1010.4
20260505120516 18 327 1.6 0.0 0.00 0.00 0.00 71 1010.4
20260505120016 18 299 4.8 0.0 0.00 0.00 0.00 70 1010.5
20260505115516 18 290 0.0 0.0 0.00 0.00 0.00 70 1010.6
20260505115016 18 312 3.2 0.0 0.00 0.00 0.00 73 1010.6
20260505114516 18 160 0.0 0.0 0.00 0.00 0.00 76 1010.6
20260505114016 18 341 3.2 0.0 0.00 0.00 0.00 76 1010.6
20260505113516 17 343 3.2 0.0 0.00 0.00 0.00 76 1010.6
20260505113016 17 334 3.2 0.0 0.00 0.00 0.00 76 1010.6
20260505112516 17 290 3.2 0.0 0.00 0.00 0.00 77 1010.6
20260505112016 17 285 1.6 0.0 0.00 0.00 0.00 77 1010.7
20260505111516 17 323 4.8 0.0 0.00 0.00 0.00 78 1010.7
20260505111016 17 331 3.2 0.0 0.00 0.00 0.00 77 1010.7
20260505110516 17 306 6.4 0.0 0.00 0.00 0.00 78 1010.8
20260505102016 17 337 3.2 0.0 0.00 0.00 0.00 81 1011.2
20260505101516 17 285 3.2 0.0 0.00 0.00 0.00 80 1011.4
20260505101016 17 320 1.6 0.0 0.00 0.00 0.00 81 1011.3
20260505100516 17 281 1.6 0.0 0.00 0.00 0.00 81 1011.4
20260505100016 16 105 0.0 0.0 0.00 0.00 0.00 82 1011.3
20260505095516 17 311 0.0 0.0 0.00 0.00 0.00 81 1011.3
20260505095016 16 156 1.6 0.0 0.00 0.00 0.00 83 1011.3
20260505094516 16 160 1.6 0.0 0.00 0.00 0.00 84 1011.3
20260505094016 16 190 3.2 0.0 0.00 0.00 0.00 84 1011.4
20260505093516 16 144 3.2 0.0 0.00 0.00 0.00 84 1011.5
20260505093016 16 141 1.6 0.0 0.00 0.00 0.00 81 1011.5
20260505092516 16 159 1.6 0.0 0.00 0.00 0.00 82 1011.5
20260505092016 16 306 1.6 0.0 0.00 0.00 0.00 84 1011.5
20260505091516 16 304 1.6 0.0 0.00 0.00 0.00 85 1011.4
20260505091016 16 75 0.0 0.0 0.00 0.00 0.00 84 1011.4
20260505090516 16 312 1.6 0.0 0.00 0.00 0.00 84 1011.4
20260505090016 15 325 3.2 0.0 0.00 0.00 0.00 85 1011.4
20260505085516 15 6 1.6 0.0 0.00 0.00 0.00 85 1011.4
20260505085016 15 306 1.6 0.0 0.00 0.00 0.00 85 1011.5
20260505084516 15 342 1.6 0.0 0.00 0.00 0.00 85 1011.5
20260505084016 15 184 1.6 0.0 0.00 0.00 0.00 86 1011.5
20260505083516 15 168 0.0 0.0 0.00 0.00 0.00 87 1011.4
20260505083016 15 175 0.0 0.0 0.00 0.00 0.00 86 1011.3
20260505082516 15 175 1.6 0.0 0.00 0.00 0.00 87 1011.3
20260505082016 15 172 3.2 0.0 0.00 0.00 0.00 88 1011.2
20260505081516 15 116 1.6 0.0 0.00 0.00 0.00 89 1011.2
20260505081016 15 24 1.6 0.0 0.00 0.00 0.00 88 1011.1
20260505080516 15 303 1.6 0.0 0.00 0.00 0.00 89 1011.1
20260505080016 15 329 1.6 0.0 0.00 0.00 0.00 89 1011.0
20260505075516 15 235 1.6 0.0 0.00 0.00 0.00 90 1010.9
20260505075016 14 294 1.6 0.0 0.00 0.00 0.00 90 1011.0
20260505074516 14 264 1.6 0.0 0.00 0.00 0.00 91 1010.9
20260505074016 14 322 1.6 0.0 0.00 0.00 0.00 92 1011.0
20260505073516 14 302 1.6 0.0 0.00 0.00 0.00 92 1011.1
20260505073016 13 316 3.2 0.0 0.00 0.00 0.00 92 1011.1
20260505072516 13 310 0.0 0.0 0.00 0.00 0.00 92 1011.2
20260505072016 13 339 3.2 0.0 0.00 0.00 0.00 92 1011.2
20260505071516 13 16 0.0 0.0 0.00 0.00 0.00 92 1011.2
20260505071016 13 331 3.2 0.0 0.00 0.00 0.00 92 1011.2
20260505070516 13 312 4.8 0.0 0.00 0.00 0.00 92 1011.3
20260505070016 13 319 3.2 0.0 0.00 0.00 0.00 91 1011.3
20260505065516 13 331 3.2 0.0 0.00 0.00 0.00 91 1011.4
20260505065016 13 327 1.6 0.0 0.00 0.00 0.00 91 1011.4
20260505064516 13 332 1.6 0.0 0.00 0.00 0.00 90 1011.4
20260505064016 13 356 1.6 0.0 0.00 0.00 0.00 90 1011.4
20260505063516 13 329 3.2 0.0 0.00 0.00 0.00 89 1011.5
20260505063016 13 302 1.6 0.0 0.00 0.00 0.00 90 1011.5
20260505062516 13 184 1.6 0.0 0.00 0.00 0.00 89 1011.5
20260505062016 13 312 0.0 0.0 0.00 0.00 0.00 91 1011.6
20260505061516 13 174 1.6 0.0 0.00 0.00 0.00 91 1011.6
20260505061016 13 1 1.6 0.0 0.00 0.00 0.00 91 1011.6
20260505060516 13 13 1.6 0.0 0.00 0.00 0.00 91 1011.6
20260505060016 13 189 3.2 0.0 0.00 0.00 0.00 92 1011.6
20260505055516 13 130 1.6 0.0 0.00 0.00 0.00 92 1011.7
20260505055016 13 151 0.0 0.0 0.00 0.00 0.00 93 1011.7
20260505054516 13 164 3.2 0.0 0.00 0.00 0.00 92 1011.8
20260505054016 13 124 1.6 0.0 0.00 0.00 0.00 92 1011.7
20260505053516 13 159 3.2 0.0 0.00 0.00 0.00 92 1011.7
20260505053016 13 359 1.6 0.0 0.00 0.00 0.00 91 1011.6
20260505052516 13 4 0.0 0.0 0.00 0.00 0.00 92 1011.6
20260505052016 13 50 0.0 0.0 0.00 0.00 0.00 92 1011.7
20260505051516 13 78 0.0 0.0 0.00 0.00 0.00 92 1011.7
20260505051016 13 315 0.0 0.0 0.00 0.00 0.00 92 1011.7
20260505050516 13 66 1.6 0.0 0.00 0.00 0.00 92 1011.6
20260505041516 13 292 1.6 0.0 0.00 0.00 0.00 91 1011.8
20260505041016 13 151 1.6 0.0 0.00 0.00 0.00 91 1011.9
20260505040516 13 84 0.0 0.0 0.00 0.00 0.00 92 1011.9
20260505040016 13 12 0.0 0.0 0.00 0.00 0.00 91 1012.0
20260505035516 13 0 0.0 0.0 0.00 0.00 0.00 92 1011.9
20260505035016 13 345 1.6 0.0 0.00 0.00 0.00 92 1011.8
20260505034516 13 324 0.0 0.0 0.00 0.00 0.00 92 1011.9
20260505034016 13 319 1.6 0.0 0.00 0.00 0.00 92 1011.8
20260505033516 13 325 1.6 0.0 0.00 0.00 0.00 92 1011.9
20260505033016 13 316 1.6 0.0 0.00 0.00 0.00 92 1011.9
20260505032516 13 328 1.6 0.0 0.00 0.00 0.00 92 1012.0
20260505032016 13 347 3.2 0.0 0.00 0.00 0.00 92 1012.1
20260505031516 13 81 0.0 0.0 0.00 0.00 0.00 92 1012.1
20260505031016 13 321 1.6 0.0 0.00 0.00 0.00 92 1012.1
20260505030516 13 314 1.6 0.0 0.00 0.00 0.00 92 1012.1
20260505030016 13 18 1.6 0.0 0.00 0.00 0.00 92 1012.1
20260505025516 13 282 1.6 0.0 0.00 0.00 0.00 92 1012.0
20260505025016 13 334 3.2 0.0 0.00 0.00 0.00 92 1012.1